• In Latvia
  • List of Countries
  • For 7 days
  • Water Temperature
  • Satellite Maps
  • Weather Map
  • Weather Widgets
  • user-avatar
    Login

    Hourly Weather Cyklady

    Today, 12 December, Tuesday

    Time Temperature Precipitation Wind Pressure Humidity
    00:00 +4°C° 0 mm 2 mps 687 mmHg 83%
    01:00 +4°C° 0 mm 2 mps 687 mmHg 84%
    02:00 +4°C° 0 mm 2 mps 687 mmHg 85%
    03:00 +4°C° 0 mm 2 mps 687 mmHg 86%
    04:00 +4°C° 0 mm 2 mps 687 mmHg 87%
    05:00 +4°C° 0 mm 2 mps 687 mmHg 87%
    06:00 +4°C° 0 mm 2 mps 687 mmHg 86%
    07:00 +4°C° 0 mm 2 mps 687 mmHg 85%
    08:00 +7°C° 0 mm 2 mps 688 mmHg 79%
    09:00 +9°C° 0 mm 2 mps 688 mmHg 74%
    10:00 +12°C° 0 mm 2 mps 689 mmHg 68%
    11:00 +13°C° 0 mm 2 mps 689 mmHg 67%
    12:00 +13°C° 0 mm 2 mps 689 mmHg 65%
    13:00 +14°C° 0 mm 2 mps 688 mmHg 64%
    14:00 +12°C° 0 mm 2 mps 688 mmHg 69%
    15:00 +10°C° 0 mm 2 mps 688 mmHg 75%
    16:00 +10°C° 0 mm 1 mps 688 mmHg 81%
    17:00 +10°C° 0 mm 1 mps 688 mmHg 83%
    18:00 +9°C° 0 mm 1 mps 688 mmHg 85%
    19:00 +8°C° 0 mm 1 mps 688 mmHg 87%
    20:00 +8°C° 0 mm 1 mps 688 mmHg 87%
    21:00 +8°C° 0 mm 1 mps 688 mmHg 87%
    22:00 +8°C° 0 mm 1 mps 688 mmHg 87%
    23:00 +7°C° 0 mm 1 mps 688 mmHg 87%

    Tomorrow, 13 December, Wednesday

    Time Temperature Precipitation Wind Pressure Humidity
    00:00 +7°C° 0 mm 1 mps 688 mmHg 88%
    01:00 +7°C° 0 mm 1 mps 688 mmHg 89%
    02:00 +7°C° 0 mm 1 mps 688 mmHg 90%
    03:00 +6°C° 0 mm 2 mps 687 mmHg 91%
    04:00 +5°C° 0 mm 2 mps 687 mmHg 92%
    05:00 +5°C° 0 mm 2 mps 687 mmHg 92%
    06:00 +5°C° 0 mm 2 mps 687 mmHg 92%
    07:00 +5°C° 0 mm 2 mps 687 mmHg 92%
    08:00 +7°C° 0 mm 2 mps 688 mmHg 84%
    09:00 +9°C° 0 mm 2 mps 688 mmHg 75%
    10:00 +12°C° 0 mm 2 mps 689 mmHg 67%
    11:00 +12°C° 0 mm 2 mps 688 mmHg 64%
    12:00 +13°C° 0 mm 2 mps 688 mmHg 62%
    13:00 +14°C° 0 mm 2 mps 688 mmHg 59%
    14:00 +12°C° 0 mm 2 mps 687 mmHg 65%
    15:00 +10°C° 0 mm 2 mps 687 mmHg 72%
    16:00 +9°C° 0 mm 2 mps 686 mmHg 78%
    17:00 +8°C° 0 mm 2 mps 686 mmHg 82%
    18:00 +7°C° 0 mm 2 mps 686 mmHg 86%
    19:00 +6°C° 0 mm 2 mps 686 mmHg 90%
    20:00 +6°C° 0 mm 2 mps 686 mmHg 89%
    21:00 +6°C° 0 mm 2 mps 686 mmHg 89%
    22:00 +6°C° 0 mm 2 mps 686 mmHg 89%
    23:00 +6°C° 0 mm 2 mps 686 mmHg 88%

    Day after tomorrow, 14 December, Thursday

    Time Temperature Precipitation Wind Pressure Humidity
    00:00 +5°C° 0 mm 2 mps 685 mmHg 88%
    01:00 +5°C° 0 mm 2 mps 685 mmHg 87%
    02:00 +5°C° 0 mm 2 mps 685 mmHg 89%
    03:00 +5°C° 0 mm 2 mps 684 mmHg 90%
    04:00 +5°C° 0 mm 2 mps 684 mmHg 92%
    05:00 +6°C° 0.1 mm 2 mps 684 mmHg 92%
    06:00 +6°C° 0.1 mm 2 mps 684 mmHg 93%
    07:00 +6°C° 0.1 mm 2 mps 684 mmHg 93%
    08:00 +8°C° 0.1 mm 2 mps 685 mmHg 87%
    09:00 +9°C° 0.1 mm 3 mps 685 mmHg 81%
    10:00 +10°C° 0.1 mm 3 mps 686 mmHg 75%
    11:00 +10°C° 0 mm 4 mps 685 mmHg 72%
    12:00 +11°C° 0 mm 4 mps 685 mmHg 68%
    13:00 +11°C° 0 mm 4 mps 685 mmHg 65%
    14:00 +10°C° 0 mm 4 mps 684 mmHg 69%
    15:00 +9°C° 0 mm 3 mps 684 mmHg 74%
    16:00 +8°C° 0 mm 3 mps 684 mmHg 78%
    17:00 +7°C° 0 mm 3 mps 684 mmHg 82%
    18:00 +5°C° 0 mm 3 mps 684 mmHg 85%
    19:00 +4°C° 0 mm 3 mps 684 mmHg 89%
    20:00 +3°C° 0 mm 3 mps 684 mmHg 88%
    21:00 +3°C° 0 mm 3 mps 684 mmHg 87%
    22:00 +2°C° 0 mm 3 mps 684 mmHg 87%
    23:00 +2°C° 0 mm 3 mps 684 mmHg 82%

    15 December, Friday

    Time Temperature Precipitation Wind Pressure Humidity
    00:00 +2°C° 0 mm 3 mps 684 mmHg 77%
    01:00 +3°C° 0 mm 2 mps 683 mmHg 72%
    02:00 +3°C° 0 mm 2 mps 683 mmHg 70%
    03:00 +3°C° 0 mm 2 mps 683 mmHg 67%
    04:00 +3°C° 0 mm 2 mps 683 mmHg 65%
    05:00 +3°C° 0 mm 2 mps 683 mmHg 67%
    06:00 +3°C° 0 mm 2 mps 683 mmHg 69%
    07:00 +3°C° 0 mm 2 mps 683 mmHg 71%
    08:00 +5°C° 0 mm 2 mps 684 mmHg 67%
    09:00 +7°C° 0 mm 2 mps 684 mmHg 64%
    10:00 +10°C° 0 mm 2 mps 684 mmHg 60%
    11:00 +10°C° 0 mm 2 mps 684 mmHg 58%
    12:00 +12°C° 0 mm 2 mps 684 mmHg 56%
    13:00 +13°C° 0 mm 2 mps 683 mmHg 53%
    14:00 +10°C° 0 mm 2 mps 683 mmHg 60%
    15:00 +9°C° 0 mm 2 mps 683 mmHg 67%
    16:00 +8°C° 0 mm 2 mps 683 mmHg 73%
    17:00 +7°C° 0 mm 2 mps 683 mmHg 76%
    18:00 +6°C° 0 mm 2 mps 682 mmHg 78%
    19:00 +6°C° 0 mm 2 mps 682 mmHg 81%
    20:00 +6°C° 0.1 mm 2 mps 683 mmHg 84%
    21:00 +6°C° 0.1 mm 2 mps 683 mmHg 86%
    22:00 +6°C° 0.1 mm 2 mps 683 mmHg 89%
    23:00 +7°C° 0.1 mm 2 mps 683 mmHg 91%

    16 December, Saturday

    Time Temperature Precipitation Wind Pressure Humidity
    00:00 +7°C° 0.1 mm 2 mps 683 mmHg 92%
    01:00 +7°C° 0.1 mm 2 mps 683 mmHg 94%
    02:00 +7°C° 0 mm 2 mps 682 mmHg 94%
    03:00 +7°C° 0 mm 2 mps 682 mmHg 95%
    04:00 +7°C° 0 mm 2 mps 682 mmHg 95%
    05:00 +7°C° 0 mm 3 mps 682 mmHg 95%
    06:00 +7°C° 0 mm 3 mps 682 mmHg 95%
    07:00 +7°C° 0 mm 3 mps 682 mmHg 95%
    08:00 +8°C° 0 mm 3 mps 683 mmHg 89%
    09:00 +10°C° 0 mm 3 mps 683 mmHg 83%
    10:00 +11°C° 0 mm 4 mps 683 mmHg 77%
    11:00 +11°C° 0 mm 4 mps 683 mmHg 74%
    12:00 +12°C° 0 mm 4 mps 683 mmHg 71%
    13:00 +12°C° 0 mm 4 mps 682 mmHg 68%
    14:00 +11°C° 0.1 mm 4 mps 682 mmHg 73%
    15:00 +11°C° 0.1 mm 3 mps 682 mmHg 79%
    16:00 +10°C° 0.1 mm 3 mps 682 mmHg 84%
    17:00 +9°C° 0.4 mm 3 mps 682 mmHg 86%
    18:00 +9°C° 0.4 mm 3 mps 682 mmHg 87%
    19:00 +9°C° 0.4 mm 3 mps 683 mmHg 89%
    20:00 +8°C° 0.2 mm 3 mps 683 mmHg 89%
    21:00 +8°C° 0.2 mm 3 mps 682 mmHg 90%
    22:00 +7°C° 0.2 mm 3 mps 682 mmHg 90%
    23:00 +7°C° 0.8 mm 3 mps 682 mmHg 91%

    17 December, Sunday

    Time Temperature Precipitation Wind Pressure Humidity
    00:00 +7°C° 0.8 mm 3 mps 682 mmHg 92%
    01:00 +6°C° 0.8 mm 4 mps 682 mmHg 92%
    02:00 +6°C° 0.8 mm 4 mps 681 mmHg 93%
    03:00 +6°C° 0.8 mm 4 mps 681 mmHg 93%
    04:00 +6°C° 0.8 mm 4 mps 681 mmHg 93%
    05:00 +6°C° 1.3 mm 4 mps 681 mmHg 93%
    06:00 +7°C° 1.3 mm 4 mps 681 mmHg 94%
    07:00 +7°C° 1.3 mm 4 mps 681 mmHg 94%
    08:00 +7°C° 3.1 mm 4 mps 681 mmHg 94%
    09:00 +7°C° 3.1 mm 4 mps 681 mmHg 95%
    10:00 +7°C° 3.1 mm 4 mps 681 mmHg 95%
    11:00 +7°C° 1.9 mm 4 mps 681 mmHg 93%
    12:00 +7°C° 1.9 mm 4 mps 681 mmHg 91%
    13:00 +7°C° 1.9 mm 4 mps 680 mmHg 90%
    14:00 +8°C° 0.4 mm 3 mps 680 mmHg 90%
    15:00 +8°C° 0.4 mm 3 mps 680 mmHg 91%
    16:00 +8°C° 0.4 mm 3 mps 680 mmHg 91%
    17:00 +8°C° 0.1 mm 3 mps 680 mmHg 92%
    18:00 +8°C° 0.1 mm 3 mps 681 mmHg 92%
    19:00 +7°C° 0.1 mm 3 mps 681 mmHg 93%
    20:00 +7°C° 0.1 mm 3 mps 681 mmHg 93%
    21:00 +7°C° 0.1 mm 3 mps 681 mmHg 93%
    22:00 +5°C° 0.1 mm 3 mps 681 mmHg 93%
    23:00 +5°C° 0.2 mm 3 mps 680 mmHg 92%
    Show more